Time,TemperatureF,DewpointF,PressureIn,WindDirection,WindDirectionDegrees,WindSpeedMPH,WindSpeedGustMPH,Humidity,HourlyPrecipIn,Conditions,Clouds,dailyrainin,SoftwareType,DateUTC
2016-02-11 00:04:00,14.8,8.9,30.37,West,281,0.0,0.0,77,0.00,,---,0.00,VWS V15.00,2016-02-11 05:04:00,
2016-02-11 00:09:00,14.8,8.9,30.37,West,281,0.0,0.0,77,0.00,,---,0.00,VWS V15.00,2016-02-11 05:09:00,
2016-02-11 00:19:00,15.0,9.1,30.37,West,281,1.0,1.0,77,0.00,,---,0.00,VWS V15.00,2016-02-11 05:19:00,
2016-02-11 00:24:00,15.1,9.2,30.37,West,281,0.0,1.0,77,0.00,,---,0.00,VWS V15.00,2016-02-11 05:24:00,
2016-02-11 00:29:00,15.1,9.2,30.37,West,281,0.0,0.0,77,0.00,,---,0.00,VWS V15.00,2016-02-11 05:29:00,
2016-02-11 00:34:00,15.2,9.3,30.37,West,281,0.0,0.0,77,0.00,,---,0.00,VWS V15.00,2016-02-11 05:34:00,
2016-02-11 00:39:00,15.2,9.3,30.37,West,281,0.0,0.0,77,0.00,,---,0.00,VWS V15.00,2016-02-11 05:39:00,
2016-02-11 00:44:00,15.2,9.3,30.37,West,281,0.0,1.0,77,0.00,,---,0.00,VWS V15.00,2016-02-11 05:44:00,
2016-02-11 00:49:00,15.2,9.3,30.37,West,281,0.0,0.0,77,0.00,,---,0.00,VWS V15.00,2016-02-11 05:49:00,
2016-02-11 00:54:00,15.2,9.3,30.37,West,281,0.0,0.0,77,0.00,,---,0.00,VWS V15.00,2016-02-11 05:54:00,
2016-02-11 00:59:00,15.2,9.3,30.37,West,281,0.0,0.0,77,0.00,,---,0.00,VWS V15.00,2016-02-11 05:59:00,
2016-02-11 01:04:00,15.2,9.3,30.37,West,281,1.0,2.0,77,0.00,,---,0.00,VWS V15.00,2016-02-11 06:04:00,
2016-02-11 01:14:00,15.2,9.3,30.37,West,281,0.0,0.0,77,0.00,,---,0.00,VWS V15.00,2016-02-11 06:14:00,
2016-02-11 01:19:00,15.1,9.5,30.38,West,281,0.0,0.0,78,0.00,,---,0.00,VWS V15.00,2016-02-11 06:19:00,
2016-02-11 01:24:00,15.1,9.5,30.37,West,281,0.0,0.0,78,0.00,,---,0.00,VWS V15.00,2016-02-11 06:24:00,
2016-02-11 01:29:00,15.0,9.4,30.37,West,281,0.0,0.0,78,0.00,,---,0.00,VWS V15.00,2016-02-11 06:29:00,
2016-02-11 01:34:00,15.0,9.4,30.38,West,281,0.0,0.0,78,0.00,,---,0.00,VWS V15.00,2016-02-11 06:34:00,
2016-02-11 01:39:00,14.9,9.3,30.38,West,281,0.0,1.0,78,0.00,,---,0.00,VWS V15.00,2016-02-11 06:39:00,
2016-02-11 01:44:00,14.9,9.3,30.37,West,281,0.0,0.0,78,0.00,,---,0.00,VWS V15.00,2016-02-11 06:44:00,
2016-02-11 01:49:00,14.8,9.5,30.37,West,281,0.0,0.0,79,0.00,,---,0.00,VWS V15.00,2016-02-11 06:49:00,
2016-02-11 01:54:00,14.7,9.4,30.37,West,281,0.0,0.0,79,0.00,,---,0.00,VWS V15.00,2016-02-11 06:54:00,
2016-02-11 01:59:00,14.5,9.2,30.38,West,281,0.0,0.0,79,0.00,,---,0.00,VWS V15.00,2016-02-11 06:59:00,
2016-02-11 02:04:00,14.5,9.2,30.38,West,281,0.0,0.0,79,0.00,,---,0.00,VWS V15.00,2016-02-11 07:04:00,
2016-02-11 02:09:00,14.4,9.1,30.37,West,281,0.0,0.0,79,0.00,,---,0.00,VWS V15.00,2016-02-11 07:09:00,
2016-02-11 02:14:00,14.2,8.9,30.38,West,281,0.0,0.0,79,0.00,,---,0.00,VWS V15.00,2016-02-11 07:14:00,
2016-02-11 02:19:00,14.0,8.7,30.37,West,281,0.0,0.0,79,0.00,,---,0.00,VWS V15.00,2016-02-11 07:19:00,
2016-02-11 02:24:00,13.9,8.9,30.37,West,281,0.0,0.0,80,0.00,,---,0.00,VWS V15.00,2016-02-11 07:24:00,
2016-02-11 02:29:00,13.8,8.8,30.37,West,281,0.0,0.0,80,0.00,,---,0.00,VWS V15.00,2016-02-11 07:29:00,
2016-02-11 02:34:00,13.5,8.5,30.37,West,281,0.0,0.0,80,0.00,,---,0.00,VWS V15.00,2016-02-11 07:34:00,
2016-02-11 02:39:00,13.3,8.3,30.37,West,281,0.0,0.0,80,0.00,,---,0.00,VWS V15.00,2016-02-11 07:39:00,
2016-02-11 02:44:00,13.0,8.0,30.37,West,281,0.0,0.0,80,0.00,,---,0.00,VWS V15.00,2016-02-11 07:44:00,
2016-02-11 02:49:00,12.7,7.7,30.38,West,281,0.0,0.0,80,0.00,,---,0.00,VWS V15.00,2016-02-11 07:49:00,
2016-02-11 02:54:00,12.5,7.8,30.38,West,281,0.0,0.0,81,0.00,,---,0.00,VWS V15.00,2016-02-11 07:54:00,
2016-02-11 02:59:00,12.2,7.5,30.38,West,281,0.0,0.0,81,0.00,,---,0.00,VWS V15.00,2016-02-11 07:59:00,
2016-02-11 03:04:00,12.0,7.3,30.38,West,281,0.0,0.0,81,0.00,,---,0.00,VWS V15.00,2016-02-11 08:04:00,
2016-02-11 03:09:00,11.7,7.0,30.38,West,281,0.0,0.0,81,0.00,,---,0.00,VWS V15.00,2016-02-11 08:09:00,
2016-02-11 03:14:00,11.6,6.9,30.38,West,281,0.0,0.0,81,0.00,,---,0.00,VWS V15.00,2016-02-11 08:14:00,
2016-02-11 03:19:00,11.4,7.0,30.38,West,281,0.0,0.0,82,0.00,,---,0.00,VWS V15.00,2016-02-11 08:19:00,
2016-02-11 03:24:00,11.3,7.2,30.38,West,281,0.0,0.0,83,0.00,,---,0.00,VWS V15.00,2016-02-11 08:24:00,
2016-02-11 03:29:00,11.2,7.1,30.38,West,281,0.0,0.0,83,0.00,,---,0.00,VWS V15.00,2016-02-11 08:29:00,
2016-02-11 03:34:00,11.1,7.0,30.38,West,281,0.0,0.0,83,0.00,,---,0.00,VWS V15.00,2016-02-11 08:34:00,
2016-02-11 03:39:00,11.0,6.9,30.37,West,281,0.0,0.0,83,0.00,,---,0.00,VWS V15.00,2016-02-11 08:39:00,
2016-02-11 03:44:00,10.9,7.0,30.37,West,281,0.0,0.0,84,0.00,,---,0.00,VWS V15.00,2016-02-11 08:44:00,
2016-02-11 03:49:00,11.0,7.4,30.37,West,281,0.0,0.0,85,0.00,,---,0.00,VWS V15.00,2016-02-11 08:49:00,
2016-02-11 03:59:00,11.2,7.6,30.38,West,281,0.0,0.0,85,0.00,,---,0.00,VWS V15.00,2016-02-11 08:59:00,
2016-02-11 04:04:00,11.3,7.9,30.37,West,281,0.0,0.0,86,0.00,,---,0.00,VWS V15.00,2016-02-11 09:04:00,
2016-02-11 04:09:00,11.4,8.0,30.38,West,281,0.0,0.0,86,0.00,,---,0.00,VWS V15.00,2016-02-11 09:09:00,
2016-02-11 04:14:00,11.6,8.2,30.38,West,281,0.0,0.0,86,0.00,,---,0.00,VWS V15.00,2016-02-11 09:14:00,
2016-02-11 04:19:00,11.9,8.5,30.38,West,281,0.0,0.0,86,0.00,,---,0.00,VWS V15.00,2016-02-11 09:19:00,
2016-02-11 04:24:00,12.3,9.2,30.38,West,281,0.0,0.0,87,0.00,,---,0.00,VWS V15.00,2016-02-11 09:24:00,
2016-02-11 04:29:00,12.6,9.5,30.38,West,281,0.0,0.0,87,0.00,,---,0.00,VWS V15.00,2016-02-11 09:29:00,
2016-02-11 04:34:00,13.0,9.6,30.38,West,281,0.0,0.0,86,0.00,,---,0.00,VWS V15.00,2016-02-11 09:34:00,
2016-02-11 04:39:00,13.4,10.0,30.38,West,281,0.0,0.0,86,0.00,,---,0.00,VWS V15.00,2016-02-11 09:39:00,
2016-02-11 04:44:00,13.6,9.9,30.39,West,281,0.0,0.0,85,0.00,,---,0.00,VWS V15.00,2016-02-11 09:44:00,
2016-02-11 04:49:00,13.8,10.1,30.39,West,281,0.0,0.0,85,0.00,,---,0.00,VWS V15.00,2016-02-11 09:49:00,
2016-02-11 04:54:00,14.0,10.1,30.39,West,281,0.0,0.0,84,0.00,,---,0.00,VWS V15.00,2016-02-11 09:54:00,
2016-02-11 04:59:00,14.1,10.2,30.39,West,281,0.0,0.0,84,0.00,,---,0.00,VWS V15.00,2016-02-11 09:59:00,
2016-02-11 05:04:00,14.2,10.0,30.39,West,281,0.0,0.0,83,0.00,,---,0.00,VWS V15.00,2016-02-11 10:04:00,
2016-02-11 05:14:00,14.4,10.2,30.40,West,281,0.0,0.0,83,0.00,,---,0.00,VWS V15.00,2016-02-11 10:14:00,
2016-02-11 05:19:00,14.5,10.0,30.40,West,281,0.0,0.0,82,0.00,,---,0.00,VWS V15.00,2016-02-11 10:19:00,
2016-02-11 05:24:00,14.5,10.0,30.40,West,281,0.0,0.0,82,0.00,,---,0.00,VWS V15.00,2016-02-11 10:24:00,
2016-02-11 05:29:00,14.5,10.0,30.40,West,281,0.0,0.0,82,0.00,,---,0.00,VWS V15.00,2016-02-11 10:29:00,
2016-02-11 05:34:00,14.5,10.0,30.40,West,281,0.0,0.0,82,0.00,,---,0.00,VWS V15.00,2016-02-11 10:34:00,
2016-02-11 05:39:00,14.5,10.0,30.41,West,281,0.0,0.0,82,0.00,,---,0.00,VWS V15.00,2016-02-11 10:39:00,
2016-02-11 05:44:00,14.5,10.0,30.41,West,281,0.0,0.0,82,0.00,,---,0.00,VWS V15.00,2016-02-11 10:44:00,
2016-02-11 05:49:00,14.5,10.0,30.41,West,281,0.0,0.0,82,0.00,,---,0.00,VWS V15.00,2016-02-11 10:49:00,
2016-02-11 05:54:00,14.5,10.0,30.41,West,281,0.0,0.0,82,0.00,,---,0.00,VWS V15.00,2016-02-11 10:54:00,
2016-02-11 06:04:00,14.5,9.7,30.42,West,281,0.0,0.0,81,0.00,,---,0.00,VWS V15.00,2016-02-11 11:04:00,
2016-02-11 06:09:00,14.5,9.7,30.42,West,281,0.0,0.0,81,0.00,,---,0.00,VWS V15.00,2016-02-11 11:09:00,
2016-02-11 06:14:00,14.5,9.7,30.42,West,281,0.0,0.0,81,0.00,,---,0.00,VWS V15.00,2016-02-11 11:14:00,
2016-02-11 06:19:00,14.5,9.7,30.42,West,281,0.0,0.0,81,0.00,,---,0.00,VWS V15.00,2016-02-11 11:19:00,
2016-02-11 06:24:00,14.4,9.6,30.42,West,281,0.0,0.0,81,0.00,,---,0.00,VWS V15.00,2016-02-11 11:24:00,
2016-02-11 06:34:00,14.3,9.6,30.43,West,281,0.0,0.0,81,0.00,,---,0.00,VWS V15.00,2016-02-11 11:34:00,
2016-02-11 06:39:00,14.2,9.4,30.43,West,281,0.0,0.0,81,0.00,,---,0.00,VWS V15.00,2016-02-11 11:39:00,
2016-02-11 06:44:00,14.2,9.4,30.43,West,281,0.0,0.0,81,0.00,,---,0.00,VWS V15.00,2016-02-11 11:44:00,
2016-02-11 06:49:00,14.1,9.4,30.44,West,281,0.0,0.0,81,0.00,,---,0.00,VWS V15.00,2016-02-11 11:49:00,
2016-02-11 06:54:00,14.0,9.3,30.44,West,281,0.0,0.0,81,0.00,,---,0.00,VWS V15.00,2016-02-11 11:54:00,
2016-02-11 06:59:00,13.9,9.2,30.45,West,281,0.0,0.0,81,0.00,,---,0.00,VWS V15.00,2016-02-11 11:59:00,
2016-02-11 07:04:00,13.8,9.1,30.45,West,281,0.0,0.0,81,0.00,,---,0.00,VWS V15.00,2016-02-11 12:04:00,
2016-02-11 07:09:00,13.6,8.9,30.45,West,281,0.0,0.0,81,0.00,,---,0.00,VWS V15.00,2016-02-11 12:09:00,
2016-02-11 07:13:00,13.5,9.0,30.45,West,281,0.0,0.0,82,0.00,,---,0.00,VWS V15.00,2016-02-11 12:13:00,
2016-02-11 07:18:00,13.3,8.8,30.45,West,281,0.0,0.0,82,0.00,,---,0.00,VWS V15.00,2016-02-11 12:18:00,
2016-02-11 07:23:00,13.1,8.6,30.46,West,281,0.0,0.0,82,0.00,,---,0.00,VWS V15.00,2016-02-11 12:23:00,
2016-02-11 07:28:00,12.9,8.4,30.46,West,281,0.0,0.0,82,0.00,,---,0.00,VWS V15.00,2016-02-11 12:28:00,
2016-02-11 07:33:00,12.8,8.6,30.46,West,281,0.0,0.0,83,0.00,,---,0.00,VWS V15.00,2016-02-11 12:33:00,
2016-02-11 07:38:00,12.6,8.4,30.47,West,281,0.0,0.0,83,0.00,,---,0.00,VWS V15.00,2016-02-11 12:38:00,
2016-02-11 07:43:00,12.4,8.2,30.47,West,281,0.0,0.0,83,0.00,,---,0.00,VWS V15.00,2016-02-11 12:43:00,
2016-02-11 07:53:00,12.1,7.9,30.48,West,281,0.0,0.0,83,0.00,,---,0.00,VWS V15.00,2016-02-11 12:53:00,
2016-02-11 08:03:00,12.0,8.1,30.48,West,281,0.0,0.0,84,0.00,,---,0.00,VWS V15.00,2016-02-11 13:03:00,
2016-02-11 08:08:00,12.1,8.5,30.49,West,281,0.0,0.0,85,0.00,,---,0.00,VWS V15.00,2016-02-11 13:08:00,
2016-02-11 08:13:00,12.2,8.6,30.49,West,281,0.0,0.0,85,0.00,,---,0.00,VWS V15.00,2016-02-11 13:13:00,
2016-02-11 08:23:00,13.0,9.6,30.49,West,281,0.0,0.0,86,0.00,,---,0.00,VWS V15.00,2016-02-11 13:23:00,
2016-02-11 08:28:00,13.5,9.8,30.49,West,281,0.0,0.0,85,0.00,,---,0.00,VWS V15.00,2016-02-11 13:28:00,
2016-02-11 08:33:00,13.8,10.1,30.49,West,281,0.0,0.0,85,0.00,,---,0.00,VWS V15.00,2016-02-11 13:33:00,
2016-02-11 08:38:00,14.1,10.2,30.49,West,281,0.0,0.0,84,0.00,,---,0.00,VWS V15.00,2016-02-11 13:38:00,
2016-02-11 08:48:00,15.0,10.5,30.50,West,281,0.0,0.0,82,0.00,,---,0.00,VWS V15.00,2016-02-11 13:48:00,
2016-02-11 08:53:00,15.2,10.4,30.50,West,281,0.0,0.0,81,0.00,,---,0.00,VWS V15.00,2016-02-11 13:53:00,
2016-02-11 08:58:00,15.5,10.7,30.50,West,281,0.0,0.0,81,0.00,,---,0.00,VWS V15.00,2016-02-11 13:58:00,
2016-02-11 09:03:00,15.7,10.6,30.51,West,281,0.0,0.0,80,0.00,,---,0.00,VWS V15.00,2016-02-11 14:03:00,
2016-02-11 09:08:00,15.9,10.6,30.51,West,281,0.0,0.0,79,0.00,,---,0.00,VWS V15.00,2016-02-11 14:08:00,
2016-02-11 09:13:00,16.1,10.8,30.51,West,281,0.0,0.0,79,0.00,,---,0.00,VWS V15.00,2016-02-11 14:13:00,
2016-02-11 09:18:00,16.3,10.7,30.51,West,281,1.0,1.0,78,0.00,,---,0.00,VWS V15.00,2016-02-11 14:18:00,
2016-02-11 09:23:00,16.3,10.4,30.51,West,281,0.0,0.0,77,0.00,,---,0.00,VWS V15.00,2016-02-11 14:23:00,
2016-02-11 09:28:00,16.6,10.7,30.52,West,281,0.0,0.0,77,0.00,,---,0.00,VWS V15.00,2016-02-11 14:28:00,
2016-02-11 09:33:00,16.8,10.9,30.52,West,281,2.0,3.0,77,0.00,,---,0.00,VWS V15.00,2016-02-11 14:33:00,
2016-02-11 09:38:00,16.9,10.7,30.52,West,281,0.0,0.0,76,0.00,,---,0.00,VWS V15.00,2016-02-11 14:38:00,
2016-02-11 09:43:00,16.9,10.7,30.52,West,281,0.0,0.0,76,0.00,,---,0.00,VWS V15.00,2016-02-11 14:43:00,
2016-02-11 09:48:00,16.9,10.7,30.52,West,281,0.0,0.0,76,0.00,,---,0.00,VWS V15.00,2016-02-11 14:48:00,
2016-02-11 09:53:00,16.9,10.7,30.52,West,281,0.0,0.0,76,0.00,,---,0.00,VWS V15.00,2016-02-11 14:53:00,
2016-02-11 10:03:00,16.9,10.7,30.52,West,281,0.0,0.0,76,0.00,,---,0.00,VWS V15.00,2016-02-11 15:03:00,
2016-02-11 10:13:00,16.9,10.7,30.51,West,281,0.0,0.0,76,0.00,,---,0.00,VWS V15.00,2016-02-11 15:13:00,
2016-02-11 10:18:00,16.9,10.7,30.51,West,281,0.0,0.0,76,0.00,,---,0.00,VWS V15.00,2016-02-11 15:18:00,
2016-02-11 10:23:00,19.3,11.8,30.52,NNW,346,0.0,0.0,72,0.00,,---,0.00,VWS V15.00,2016-02-11 15:23:00,
2016-02-11 10:33:00,20.1,11.6,30.52,NNW,333,1.0,1.0,69,0.00,,---,0.00,VWS V15.00,2016-02-11 15:33:00,
2016-02-11 10:38:00,20.5,12.0,30.52,NNW,333,0.0,0.0,69,0.00,,---,0.00,VWS V15.00,2016-02-11 15:38:00,
2016-02-11 10:53:00,21.1,11.2,30.52,WNW,297,1.0,2.0,65,0.00,,---,0.00,VWS V15.00,2016-02-11 15:53:00,
2016-02-11 10:58:00,21.0,10.8,30.52,NNW,346,0.0,0.0,64,0.00,,---,0.00,VWS V15.00,2016-02-11 15:58:00,
2016-02-11 11:03:00,21.1,10.8,30.53,NNE,17,2.0,2.0,64,0.00,,---,0.00,VWS V15.00,2016-02-11 16:03:00,
2016-02-11 11:08:00,21.3,11.4,30.53,North,10,0.0,0.0,65,0.00,,---,0.00,VWS V15.00,2016-02-11 16:08:00,
2016-02-11 11:13:00,21.8,11.9,30.53,North,10,0.0,0.0,65,0.00,,---,0.00,VWS V15.00,2016-02-11 16:13:00,
2016-02-11 11:18:00,22.0,11.4,30.53,North,360,2.0,2.0,63,0.00,,---,0.00,VWS V15.00,2016-02-11 16:18:00,
2016-02-11 11:23:00,21.9,11.2,30.53,NNE,27,0.0,1.0,63,0.00,,---,0.00,VWS V15.00,2016-02-11 16:23:00,
2016-02-11 11:28:00,21.9,11.2,30.53,NNE,22,0.0,1.0,63,0.00,,---,0.00,VWS V15.00,2016-02-11 16:28:00,
2016-02-11 11:33:00,22.2,11.5,30.53,NNE,21,0.0,1.0,63,0.00,,---,0.00,VWS V15.00,2016-02-11 16:33:00,
2016-02-11 11:38:00,22.4,11.4,30.53,SW,218,1.0,3.0,62,0.00,,---,0.00,VWS V15.00,2016-02-11 16:38:00,
2016-02-11 11:43:00,22.5,11.5,30.53,SW,218,0.0,1.0,62,0.00,,---,0.00,VWS V15.00,2016-02-11 16:43:00,
2016-02-11 11:48:00,22.5,10.7,30.53,SW,218,0.0,1.0,60,0.00,,---,0.00,VWS V15.00,2016-02-11 16:48:00,
2016-02-11 11:53:00,22.8,11.4,30.53,ESE,107,3.0,3.0,61,0.00,,---,0.00,VWS V15.00,2016-02-11 16:53:00,
2016-02-11 11:58:00,22.7,11.3,30.53,NNE,15,0.0,0.0,61,0.00,,---,0.00,VWS V15.00,2016-02-11 16:58:00,
2016-02-11 12:03:00,22.7,10.5,30.53,NNE,15,0.0,0.0,59,0.00,,---,0.00,VWS V15.00,2016-02-11 17:03:00,
2016-02-11 12:08:00,22.8,10.6,30.53,North,8,0.0,1.0,59,0.00,,---,0.00,VWS V15.00,2016-02-11 17:08:00,
2016-02-11 12:13:00,23.1,11.7,30.53,WSW,253,0.0,1.0,61,0.00,,---,0.00,VWS V15.00,2016-02-11 17:13:00,
2016-02-11 12:23:00,23.4,11.2,30.53,North,1,3.0,3.0,59,0.00,,---,0.00,VWS V15.00,2016-02-11 17:23:00,
2016-02-11 12:28:00,22.7,10.2,30.52,North,9,1.0,4.0,58,0.00,,---,0.00,VWS V15.00,2016-02-11 17:28:00,
2016-02-11 12:33:00,22.4,9.5,30.52,East,100,0.0,3.0,57,0.00,,---,0.00,VWS V15.00,2016-02-11 17:33:00,
2016-02-11 12:38:00,22.5,10.0,30.52,East,100,0.0,0.0,58,0.00,,---,0.00,VWS V15.00,2016-02-11 17:38:00,
2016-02-11 12:43:00,23.1,11.3,30.52,East,100,1.0,1.0,60,0.00,,---,0.00,VWS V15.00,2016-02-11 17:43:00,
2016-02-11 12:48:00,23.3,10.3,30.52,ENE,78,0.0,1.0,57,0.00,,---,0.00,VWS V15.00,2016-02-11 17:48:00,
2016-02-11 12:53:00,23.4,10.4,30.52,ENE,78,2.0,2.0,57,0.00,,---,0.00,VWS V15.00,2016-02-11 17:53:00,
2016-02-11 12:58:00,23.5,10.1,30.51,West,274,0.0,0.0,56,0.00,,---,0.00,VWS V15.00,2016-02-11 17:58:00,
2016-02-11 13:03:00,23.6,9.4,30.51,East,81,5.0,5.0,54,0.01,,---,0.01,VWS V15.00,2016-02-11 18:03:00,
2016-02-11 13:08:00,23.1,9.4,30.51,North,2,0.0,1.0,55,0.01,,---,0.01,VWS V15.00,2016-02-11 18:08:00,
2016-02-11 13:13:00,23.1,10.1,30.51,North,6,0.0,1.0,57,0.01,,---,0.01,VWS V15.00,2016-02-11 18:13:00,
2016-02-11 13:18:00,22.9,9.2,30.50,ENE,68,2.0,6.0,55,0.01,,---,0.01,VWS V15.00,2016-02-11 18:18:00,
2016-02-11 13:23:00,22.7,9.8,30.50,ENE,72,0.0,1.0,57,0.01,,---,0.01,VWS V15.00,2016-02-11 18:23:00,
2016-02-11 13:33:00,23.7,10.3,30.50,WSW,241,1.0,2.0,56,0.01,,---,0.01,VWS V15.00,2016-02-11 18:33:00,
2016-02-11 13:38:00,23.8,10.4,30.50,West,276,0.0,0.0,56,0.01,,---,0.01,VWS V15.00,2016-02-11 18:38:00,
2016-02-11 13:43:00,23.6,8.6,30.50,East,87,0.0,2.0,52,0.01,,---,0.01,VWS V15.00,2016-02-11 18:43:00,
2016-02-11 13:48:00,23.5,9.7,30.50,ESE,103,1.0,2.0,55,0.01,,---,0.01,VWS V15.00,2016-02-11 18:48:00,
2016-02-11 13:53:00,23.6,10.2,30.50,ESE,103,1.0,3.0,56,0.01,,---,0.01,VWS V15.00,2016-02-11 18:53:00,
2016-02-11 13:58:00,24.1,11.1,30.50,ESE,103,1.0,1.0,57,0.01,,---,0.01,VWS V15.00,2016-02-11 18:58:00,
2016-02-11 14:03:00,24.7,12.0,30.50,ESE,103,0.0,0.0,58,0.00,,---,0.01,VWS V15.00,2016-02-11 19:03:00,
2016-02-11 14:08:00,24.9,11.8,30.50,ESE,103,1.0,1.0,57,0.01,,---,0.02,VWS V15.00,2016-02-11 19:08:00,
2016-02-11 14:13:00,24.8,10.9,30.50,West,276,0.0,1.0,55,0.01,,---,0.02,VWS V15.00,2016-02-11 19:13:00,
2016-02-11 14:18:00,24.6,11.2,30.50,WNW,287,0.0,2.0,56,0.01,,---,0.02,VWS V15.00,2016-02-11 19:18:00,
2016-02-11 14:23:00,24.3,10.9,30.50,NNW,333,0.0,2.0,56,0.01,,---,0.02,VWS V15.00,2016-02-11 19:23:00,
2016-02-11 14:28:00,24.1,10.7,30.50,NNW,341,2.0,2.0,56,0.01,,---,0.02,VWS V15.00,2016-02-11 19:28:00,
2016-02-11 14:33:00,24.0,10.2,30.50,NNW,341,0.0,0.0,55,0.01,,---,0.02,VWS V15.00,2016-02-11 19:33:00,
2016-02-11 14:38:00,24.0,10.2,30.50,WNW,302,2.0,2.0,55,0.01,,---,0.02,VWS V15.00,2016-02-11 19:38:00,
2016-02-11 14:43:00,23.7,10.3,30.50,WNW,295,0.0,1.0,56,0.01,,---,0.02,VWS V15.00,2016-02-11 19:43:00,
2016-02-11 14:48:00,23.5,10.1,30.50,WNW,295,0.0,1.0,56,0.01,,---,0.02,VWS V15.00,2016-02-11 19:48:00,
2016-02-11 14:53:00,23.5,10.1,30.50,WSW,252,1.0,2.0,56,0.01,,---,0.02,VWS V15.00,2016-02-11 19:53:00,
2016-02-11 14:58:00,23.6,9.8,30.50,NNW,338,0.0,0.0,55,0.01,,---,0.02,VWS V15.00,2016-02-11 19:58:00,
2016-02-11 15:03:00,23.6,10.2,30.50,NNW,337,0.0,0.0,56,0.01,,---,0.02,VWS V15.00,2016-02-11 20:03:00,
2016-02-11 15:08:00,23.5,9.7,30.50,NNE,18,0.0,0.0,55,0.00,,---,0.02,VWS V15.00,2016-02-11 20:08:00,
2016-02-11 15:13:00,23.5,10.1,30.50,NNE,28,0.0,0.0,56,0.00,,---,0.02,VWS V15.00,2016-02-11 20:13:00,
2016-02-11 15:18:00,23.6,10.6,30.50,North,4,2.0,3.0,57,0.00,,---,0.02,VWS V15.00,2016-02-11 20:18:00,
2016-02-11 15:23:00,23.4,9.6,30.50,ENE,61,0.0,1.0,55,0.00,,---,0.02,VWS V15.00,2016-02-11 20:23:00,
2016-02-11 15:28:00,23.4,10.0,30.50,ENE,61,0.0,0.0,56,0.00,,---,0.02,VWS V15.00,2016-02-11 20:28:00,
2016-02-11 15:33:00,23.7,10.7,30.50,ENE,61,0.0,0.0,57,0.00,,---,0.02,VWS V15.00,2016-02-11 20:33:00,
2016-02-11 15:43:00,23.6,9.8,30.50,West,278,0.0,0.0,55,0.00,,---,0.02,VWS V15.00,2016-02-11 20:43:00,
2016-02-11 15:48:00,23.6,10.2,30.50,NW,307,0.0,1.0,56,0.00,,---,0.02,VWS V15.00,2016-02-11 20:48:00,
2016-02-11 15:53:00,23.6,10.2,30.50,SSW,212,2.0,2.0,56,0.00,,---,0.02,VWS V15.00,2016-02-11 20:53:00,
2016-02-11 15:58:00,23.5,9.7,30.51,SSW,212,0.0,0.0,55,0.00,,---,0.02,VWS V15.00,2016-02-11 20:58:00,
2016-02-11 16:03:00,23.4,9.6,30.51,North,356,0.0,0.0,55,0.00,,---,0.02,VWS V15.00,2016-02-11 21:03:00,
2016-02-11 16:08:00,23.3,9.9,30.51,NNW,346,0.0,0.0,56,0.00,,---,0.02,VWS V15.00,2016-02-11 21:08:00,
2016-02-11 16:13:00,23.1,8.9,30.51,ENE,67,0.0,1.0,54,0.00,,---,0.02,VWS V15.00,2016-02-11 21:13:00,
2016-02-11 16:18:00,22.7,8.1,30.51,ENE,75,0.0,0.0,53,0.00,,---,0.02,VWS V15.00,2016-02-11 21:18:00,
2016-02-11 16:23:00,22.7,8.6,30.51,ENE,75,1.0,2.0,54,0.00,,---,0.02,VWS V15.00,2016-02-11 21:23:00,
2016-02-11 16:33:00,22.8,9.5,30.52,ENE,75,0.0,0.0,56,0.00,,---,0.02,VWS V15.00,2016-02-11 21:33:00,
2016-02-11 16:38:00,22.9,10.0,30.52,ENE,75,1.0,1.0,57,0.00,,---,0.02,VWS V15.00,2016-02-11 21:38:00,
2016-02-11 16:43:00,23.0,10.1,30.52,ENE,75,2.0,2.0,57,0.00,,---,0.02,VWS V15.00,2016-02-11 21:43:00,
2016-02-11 16:48:00,23.0,10.1,30.52,ENE,77,1.0,2.0,57,0.00,,---,0.02,VWS V15.00,2016-02-11 21:48:00,
2016-02-11 16:53:00,23.1,9.8,30.52,ENE,77,1.0,2.0,56,0.00,,---,0.02,VWS V15.00,2016-02-11 21:53:00,
2016-02-11 16:58:00,23.1,10.1,30.52,ENE,77,0.0,1.0,57,0.00,,---,0.02,VWS V15.00,2016-02-11 21:58:00,
2016-02-11 17:03:00,23.1,10.1,30.52,ENE,77,0.0,0.0,57,0.00,,---,0.02,VWS V15.00,2016-02-11 22:03:00,
2016-02-11 17:08:00,23.1,10.1,30.53,ENE,77,0.0,0.0,57,0.00,,---,0.02,VWS V15.00,2016-02-11 22:08:00,
2016-02-11 17:13:00,23.1,10.1,30.53,ENE,77,0.0,0.0,57,0.00,,---,0.02,VWS V15.00,2016-02-11 22:13:00,
2016-02-11 17:18:00,23.0,10.1,30.53,ENE,77,0.0,0.0,57,0.00,,---,0.02,VWS V15.00,2016-02-11 22:18:00,
2016-02-11 17:28:00,22.8,10.2,30.53,ENE,77,0.0,0.0,58,0.00,,---,0.02,VWS V15.00,2016-02-11 22:28:00,
2016-02-11 17:33:00,22.7,10.2,30.53,ENE,77,0.0,0.0,58,0.00,,---,0.02,VWS V15.00,2016-02-11 22:33:00,
2016-02-11 17:38:00,22.6,10.1,30.53,ENE,77,0.0,0.0,58,0.00,,---,0.02,VWS V15.00,2016-02-11 22:38:00,
2016-02-11 17:43:00,22.5,10.4,30.53,ENE,77,0.0,0.0,59,0.00,,---,0.02,VWS V15.00,2016-02-11 22:43:00,
2016-02-11 17:48:00,22.3,10.2,30.53,ENE,77,0.0,0.0,59,0.00,,---,0.02,VWS V15.00,2016-02-11 22:48:00,
2016-02-11 17:53:00,22.2,9.7,30.53,ENE,77,0.0,0.0,58,0.00,,---,0.02,VWS V15.00,2016-02-11 22:53:00,
2016-02-11 18:03:00,21.8,9.7,30.53,ENE,77,0.0,0.0,59,0.00,,---,0.02,VWS V15.00,2016-02-11 23:03:00,
2016-02-11 18:08:00,21.6,9.5,30.53,ENE,77,0.0,0.0,59,0.00,,---,0.02,VWS V15.00,2016-02-11 23:08:00,
2016-02-11 18:13:00,21.4,9.3,30.53,ENE,77,0.0,0.0,59,0.00,,---,0.02,VWS V15.00,2016-02-11 23:13:00,
2016-02-11 18:18:00,21.2,9.1,30.53,ENE,77,0.0,0.0,59,0.00,,---,0.02,VWS V15.00,2016-02-11 23:18:00,
2016-02-11 18:23:00,21.0,9.3,30.53,ENE,77,0.0,0.0,60,0.00,,---,0.02,VWS V15.00,2016-02-11 23:23:00,
2016-02-11 18:28:00,20.7,9.0,30.53,ENE,77,0.0,0.0,60,0.00,,---,0.02,VWS V15.00,2016-02-11 23:28:00,
2016-02-11 18:33:00,20.5,9.2,30.53,ENE,77,0.0,0.0,61,0.00,,---,0.02,VWS V15.00,2016-02-11 23:33:00,
2016-02-11 18:38:00,20.4,9.5,30.53,ENE,77,0.0,0.0,62,0.00,,---,0.02,VWS V15.00,2016-02-11 23:38:00,
2016-02-11 18:43:00,20.2,9.6,30.54,ENE,77,0.0,0.0,63,0.00,,---,0.02,VWS V15.00,2016-02-11 23:43:00,
2016-02-11 18:48:00,20.0,9.8,30.54,ENE,77,0.0,0.0,64,0.00,,---,0.02,VWS V15.00,2016-02-11 23:48:00,
2016-02-11 18:53:00,19.8,9.6,30.54,ENE,77,0.0,0.0,64,0.00,,---,0.02,VWS V15.00,2016-02-11 23:53:00,
2016-02-11 18:58:00,19.6,10.1,30.54,ENE,77,0.0,0.0,66,0.00,,---,0.02,VWS V15.00,2016-02-11 23:58:00,
2016-02-11 19:03:00,19.4,9.6,30.54,ENE,77,0.0,0.0,65,0.00,,---,0.02,VWS V15.00,2016-02-12 00:03:00,
2016-02-11 19:08:00,19.2,9.4,30.54,ENE,77,0.0,0.0,65,0.00,,---,0.02,VWS V15.00,2016-02-12 00:08:00,
2016-02-11 19:13:00,19.1,9.3,30.54,ENE,77,0.0,0.0,65,0.00,,---,0.02,VWS V15.00,2016-02-12 00:13:00,
2016-02-11 19:18:00,19.0,9.9,30.54,ENE,77,0.0,0.0,67,0.00,,---,0.02,VWS V15.00,2016-02-12 00:18:00,
2016-02-11 19:23:00,18.9,10.1,30.55,ENE,77,0.0,0.0,68,0.00,,---,0.02,VWS V15.00,2016-02-12 00:23:00,
2016-02-11 19:28:00,18.7,9.9,30.54,ENE,77,0.0,0.0,68,0.00,,---,0.02,VWS V15.00,2016-02-12 00:28:00,
2016-02-11 19:43:00,18.3,9.9,30.54,ENE,77,0.0,0.0,69,0.00,,---,0.02,VWS V15.00,2016-02-12 00:43:00,
2016-02-11 19:48:00,18.2,10.1,30.54,ENE,77,0.0,0.0,70,0.00,,---,0.02,VWS V15.00,2016-02-12 00:48:00,
2016-02-11 19:53:00,18.1,10.3,30.54,ENE,77,0.0,0.0,71,0.00,,---,0.02,VWS V15.00,2016-02-12 00:53:00,
2016-02-11 19:58:00,18.0,10.2,30.54,ENE,77,0.0,0.0,71,0.00,,---,0.02,VWS V15.00,2016-02-12 00:58:00,
2016-02-11 20:03:00,18.0,10.2,30.54,ENE,77,0.0,0.0,71,0.00,,---,0.02,VWS V15.00,2016-02-12 01:03:00,
2016-02-11 20:08:00,18.0,10.2,30.53,ENE,77,0.0,0.0,71,0.00,,---,0.02,VWS V15.00,2016-02-12 01:08:00,
2016-02-11 20:13:00,18.0,10.2,30.53,ENE,77,0.0,0.0,71,0.00,,---,0.02,VWS V15.00,2016-02-12 01:13:00,
2016-02-11 20:18:00,18.0,10.2,30.53,ENE,77,0.0,0.0,71,0.00,,---,0.02,VWS V15.00,2016-02-12 01:18:00,
2016-02-11 20:23:00,18.0,10.2,30.53,ENE,77,0.0,0.0,71,0.00,,---,0.02,VWS V15.00,2016-02-12 01:23:00,